アフリカーノ彗星

C/2019 B1 ( Africano )

English version
Home page
Updated on February 8, 2019

---------------------------------------------------------------------

・ プロフィール

発見日 2019年1月19日
発見光度 17.8等
発見者 B. M. Africano (Catalina)

・ 軌道要素

Epoch 2019 Mar. 18.0 TT = JDT 2458560.5
T 2019 Mar. 19.97491 TT                                 MPCW
q   1.5969657            (2000.0)            P               Q
z  +0.0077091      Peri.  174.92082     -0.39355539     +0.48220773
 +/-0.0015694      Node   290.44567     +0.81129259     +0.58258209
e   0.9876888      Incl.  123.35270     +0.43234071     -0.65427351
From 41 observations 2019 Jan. 19-31, mean residual 0".6.

・ 光度変化

        m1 = 15.5 + 5 logΔ + 10.0 log r

---------------------------------------------------------------------

軌道要素はM.P.E.C. 2019-C11に掲載されたものです。
光度グラフはComet for Windowsで作成したものです。

---------------------------------------------------------------------

Copyright(C) Seiichi Yoshida (comet@aerith.net). All rights reserved.